Year,Month,Day,Hour,Minute,Value (Times are PST for temperature in C)
2008,10,19,00,00,4.40
2008,10,19,00,01,4.40
2008,10,19,00,02,4.40
2008,10,19,00,03,4.30
2008,10,19,00,04,4.30
2008,10,19,00,05,4.30
2008,10,19,00,06,4.30
2008,10,19,00,07,4.30
2008,10,19,00,08,4.30
2008,10,19,00,09,4.30
2008,10,19,00,10,4.30
2008,10,19,00,11,4.30
2008,10,19,00,12,4.30
2008,10,19,00,13,4.30
2008,10,19,00,14,4.30
2008,10,19,00,15,4.20
2008,10,19,00,16,4.20
2008,10,19,00,17,4.20
2008,10,19,00,18,4.20
2008,10,19,00,19,4.20
2008,10,19,00,20,4.20
2008,10,19,00,21,4.20
2008,10,19,00,22,4.10
2008,10,19,00,23,4.10
2008,10,19,00,24,4.10
2008,10,19,00,25,4.10
2008,10,19,00,26,4.10
2008,10,19,00,27,4.10
2008,10,19,00,28,4.10
2008,10,19,00,29,4.10
2008,10,19,00,30,4.10
2008,10,19,00,31,4.10
2008,10,19,00,32,4.10
2008,10,19,00,33,4.10
2008,10,19,00,34,4.10
2008,10,19,00,35,4.10
2008,10,19,00,36,4.10
2008,10,19,00,37,4.10
2008,10,19,00,38,4.10
2008,10,19,00,39,4.10
2008,10,19,00,40,4.10
2008,10,19,00,41,4.10
2008,10,19,00,42,4.10
2008,10,19,00,43,4.10
2008,10,19,00,44,4.10
2008,10,19,00,45,4.10
2008,10,19,01,02,4.10
2008,10,19,01,03,4.10
2008,10,19,01,04,4.10
2008,10,19,01,05,4.10
2008,10,19,01,06,4.10
2008,10,19,01,07,4.00
2008,10,19,01,08,4.00
2008,10,19,01,09,4.00
2008,10,19,01,10,4.00
2008,10,19,01,11,4.00
2008,10,19,01,12,3.90
2008,10,19,01,13,3.90
2008,10,19,01,14,3.90
2008,10,19,01,15,3.90
2008,10,19,01,16,3.90
2008,10,19,01,17,3.90
2008,10,19,01,18,3.90
2008,10,19,01,19,3.90
2008,10,19,01,20,3.90
2008,10,19,01,21,3.90
2008,10,19,01,22,3.90
2008,10,19,01,23,3.90
2008,10,19,01,24,3.90
2008,10,19,01,25,3.80
2008,10,19,01,26,3.80
2008,10,19,01,27,3.80
2008,10,19,01,28,3.80
2008,10,19,01,29,3.80
2008,10,19,01,30,3.80
2008,10,19,01,31,3.80
2008,10,19,01,32,3.80
2008,10,19,01,33,3.80
2008,10,19,01,34,3.80
2008,10,19,01,35,3.80
2008,10,19,01,36,3.80
2008,10,19,01,37,3.80
2008,10,19,01,38,3.80
2008,10,19,01,39,3.80
2008,10,19,01,40,3.80
2008,10,19,01,41,3.80
2008,10,19,01,42,3.80
2008,10,19,01,43,3.80
2008,10,19,01,44,3.70
2008,10,19,01,45,3.70
2008,10,19,01,46,3.70
2008,10,19,01,47,3.70
2008,10,19,01,48,3.70
2008,10,19,01,49,3.70
2008,10,19,01,50,3.70
2008,10,19,01,51,3.70
2008,10,19,01,52,3.70
2008,10,19,01,53,3.70
2008,10,19,01,54,3.70
2008,10,19,01,55,3.70
2008,10,19,01,56,3.70
2008,10,19,01,57,3.70
2008,10,19,01,58,3.70
2008,10,19,01,59,3.70
2008,10,19,02,00,3.70
2008,10,19,02,01,3.70
2008,10,19,02,02,3.70
2008,10,19,02,03,3.70
2008,10,19,02,04,3.70
2008,10,19,02,05,3.70
2008,10,19,02,06,3.60
2008,10,19,02,07,3.70
2008,10,19,02,08,3.70
2008,10,19,02,09,3.60
2008,10,19,02,10,3.60
2008,10,19,02,11,3.60
2008,10,19,02,12,3.60
2008,10,19,02,13,3.60
2008,10,19,02,14,3.60
2008,10,19,02,15,3.60
2008,10,19,02,16,3.60
2008,10,19,02,17,3.60
2008,10,19,02,18,3.60
2008,10,19,02,19,3.60
2008,10,19,02,20,3.60
2008,10,19,02,21,3.60
2008,10,19,02,22,3.50
2008,10,19,02,23,3.50
2008,10,19,02,24,3.50
2008,10,19,02,25,3.50
2008,10,19,02,26,3.50
2008,10,19,02,27,3.50
2008,10,19,02,28,3.50
2008,10,19,02,29,3.50
2008,10,19,02,30,3.50
2008,10,19,02,31,3.50
2008,10,19,02,32,3.50
2008,10,19,02,33,3.50
2008,10,19,02,34,3.50
2008,10,19,02,35,3.50
2008,10,19,02,36,3.40
2008,10,19,02,37,3.40
2008,10,19,02,38,3.40
2008,10,19,02,39,3.40
2008,10,19,02,40,3.40
2008,10,19,02,41,3.40
2008,10,19,02,42,3.40
2008,10,19,02,43,3.40
2008,10,19,02,44,3.40
2008,10,19,02,45,3.40
2008,10,19,02,46,3.40
2008,10,19,02,47,3.40
2008,10,19,02,48,3.40
2008,10,19,02,49,3.30
2008,10,19,02,50,3.30
2008,10,19,02,51,3.30
2008,10,19,02,52,3.30
2008,10,19,02,53,3.30
2008,10,19,02,54,3.30
2008,10,19,02,55,3.30
2008,10,19,02,56,3.30
2008,10,19,02,57,3.20
2008,10,19,02,58,3.20
2008,10,19,02,59,3.20
2008,10,19,03,00,3.20
2008,10,19,03,01,3.20
2008,10,19,03,02,3.20
2008,10,19,03,03,3.20
2008,10,19,03,04,3.20
2008,10,19,03,05,3.30
2008,10,19,03,06,3.30
2008,10,19,03,07,3.30
2008,10,19,03,08,3.30
2008,10,19,03,09,3.30
2008,10,19,03,10,3.30
2008,10,19,03,11,3.30
2008,10,19,03,12,3.30
2008,10,19,03,13,3.30
2008,10,19,03,14,3.30
2008,10,19,03,15,3.30
2008,10,19,03,16,3.30
2008,10,19,03,17,3.30
2008,10,19,03,18,3.30
2008,10,19,03,19,3.30
2008,10,19,03,20,3.30
2008,10,19,03,21,3.30
2008,10,19,03,22,3.30
2008,10,19,03,23,3.30
2008,10,19,03,24,3.30
2008,10,19,03,25,3.30
2008,10,19,03,26,3.30
2008,10,19,03,27,3.30
2008,10,19,03,28,3.30
2008,10,19,03,29,3.30
2008,10,19,03,30,3.30
2008,10,19,03,31,3.30
2008,10,19,03,32,3.30
2008,10,19,03,33,3.30
2008,10,19,03,34,3.30
2008,10,19,03,35,3.30
2008,10,19,03,36,3.20
2008,10,19,03,37,3.20
2008,10,19,03,38,3.20
2008,10,19,03,39,3.20
2008,10,19,03,40,3.20
2008,10,19,03,41,3.20
2008,10,19,03,42,3.20
2008,10,19,03,43,3.20
2008,10,19,03,44,3.20
2008,10,19,03,45,3.20
2008,10,19,03,46,3.20
2008,10,19,03,47,3.20
2008,10,19,03,48,3.20
2008,10,19,03,49,3.10
2008,10,19,03,50,3.10
2008,10,19,03,51,3.10
2008,10,19,03,52,3.10
2008,10,19,03,53,3.10
2008,10,19,03,54,3.10
2008,10,19,03,55,3.10
2008,10,19,03,56,3.10
2008,10,19,03,57,3.00
2008,10,19,03,58,3.00
2008,10,19,03,59,3.00
2008,10,19,04,00,3.00
2008,10,19,04,01,3.00
2008,10,19,04,02,3.00
2008,10,19,04,03,3.00
2008,10,19,04,04,3.00
2008,10,19,04,05,3.00
2008,10,19,04,06,2.90
2008,10,19,04,07,2.90
2008,10,19,04,08,2.90
2008,10,19,04,09,2.90
2008,10,19,04,10,2.90
2008,10,19,04,11,2.90
2008,10,19,04,12,2.90
2008,10,19,04,13,2.90
2008,10,19,04,14,2.90
2008,10,19,04,15,2.90
2008,10,19,04,16,2.90
2008,10,19,04,17,2.90
2008,10,19,04,18,2.90
2008,10,19,04,19,2.90
2008,10,19,04,20,2.90
2008,10,19,04,21,2.90
2008,10,19,04,22,2.90
2008,10,19,04,23,2.90
2008,10,19,04,24,2.90
2008,10,19,04,25,2.90
2008,10,19,04,26,2.90
2008,10,19,04,27,2.90
2008,10,19,04,28,2.80
2008,10,19,04,29,2.80
2008,10,19,04,30,2.80
2008,10,19,04,31,2.80
2008,10,19,04,32,2.80
2008,10,19,04,33,2.80
2008,10,19,04,34,2.80
2008,10,19,04,35,2.90
2008,10,19,04,36,2.90
2008,10,19,04,37,2.80
2008,10,19,04,38,2.80
2008,10,19,04,39,2.80
2008,10,19,04,40,2.80
2008,10,19,04,41,2.80
2008,10,19,04,42,2.80
2008,10,19,04,43,2.80
2008,10,19,04,44,2.80
2008,10,19,04,45,2.80
2008,10,19,04,46,2.80
2008,10,19,04,47,2.80
2008,10,19,04,48,2.80
2008,10,19,04,49,2.70
2008,10,19,04,50,2.70
2008,10,19,04,51,2.70
2008,10,19,04,52,2.70
2008,10,19,04,53,2.70
2008,10,19,04,54,2.70
2008,10,19,04,55,2.70
2008,10,19,04,56,2.70
2008,10,19,04,57,2.70
2008,10,19,04,58,2.70
2008,10,19,04,59,2.70
2008,10,19,05,00,2.70
2008,10,19,05,01,2.70
2008,10,19,05,02,2.70
2008,10,19,05,03,2.70
2008,10,19,05,04,2.70
2008,10,19,05,05,2.70
2008,10,19,05,06,2.70
2008,10,19,05,07,2.70
2008,10,19,05,08,2.70
2008,10,19,05,09,2.70
2008,10,19,05,10,2.70
2008,10,19,05,11,2.70
2008,10,19,05,12,2.70
2008,10,19,05,13,2.70
2008,10,19,05,14,2.70
2008,10,19,05,15,2.70
2008,10,19,05,16,2.70
2008,10,19,05,17,2.60
2008,10,19,05,18,2.60
2008,10,19,05,19,2.60
2008,10,19,05,20,2.60
2008,10,19,05,21,2.60
2008,10,19,05,22,2.60
2008,10,19,05,23,2.60
2008,10,19,05,24,2.60
2008,10,19,05,25,2.60
2008,10,19,05,26,2.50
2008,10,19,05,27,2.50
2008,10,19,05,28,2.50
2008,10,19,05,29,2.40
2008,10,19,05,30,2.40
2008,10,19,05,31,2.40
2008,10,19,05,32,2.40
2008,10,19,05,33,2.40
2008,10,19,05,34,2.40
2008,10,19,05,35,2.40
2008,10,19,05,36,2.40
2008,10,19,05,37,2.40
2008,10,19,05,38,2.50
2008,10,19,05,39,2.50
2008,10,19,05,40,2.50
2008,10,19,05,41,2.50
2008,10,19,05,42,2.50
2008,10,19,05,43,2.50
2008,10,19,05,44,2.50
2008,10,19,05,45,2.50
2008,10,19,05,46,2.50
2008,10,19,05,47,2.50
2008,10,19,05,48,2.60
2008,10,19,05,49,2.60
2008,10,19,05,50,2.60
2008,10,19,05,51,2.60
2008,10,19,05,52,2.60
2008,10,19,05,53,2.60
2008,10,19,05,54,2.60
2008,10,19,05,55,2.60
2008,10,19,05,56,2.60
2008,10,19,05,57,2.60
2008,10,19,05,58,2.60
2008,10,19,05,59,2.60
2008,10,19,06,00,2.60
2008,10,19,06,01,2.60
2008,10,19,06,02,2.60
2008,10,19,06,03,2.60
2008,10,19,06,04,2.60
2008,10,19,06,05,2.60
2008,10,19,06,06,2.60
2008,10,19,06,07,2.60
2008,10,19,06,08,2.60
2008,10,19,06,09,2.60
2008,10,19,06,10,2.50
2008,10,19,06,11,2.50
2008,10,19,06,12,2.50
2008,10,19,06,13,2.50
2008,10,19,06,14,2.50
2008,10,19,06,15,2.40
2008,10,19,06,16,2.40
2008,10,19,06,17,2.40
2008,10,19,06,18,2.40
2008,10,19,06,19,2.30
2008,10,19,06,20,2.30
2008,10,19,06,21,2.30
2008,10,19,06,22,2.30
2008,10,19,06,23,2.30
2008,10,19,06,24,2.20
2008,10,19,06,25,2.20
2008,10,19,06,26,2.20
2008,10,19,06,27,2.20
2008,10,19,06,28,2.20
2008,10,19,06,29,2.20
2008,10,19,06,30,2.20
2008,10,19,06,31,2.20
2008,10,19,06,32,2.20
2008,10,19,06,33,2.20
2008,10,19,06,34,2.10
2008,10,19,06,35,2.10
2008,10,19,06,36,2.10
2008,10,19,06,37,2.00
2008,10,19,06,38,2.00
2008,10,19,06,39,2.00
2008,10,19,06,40,1.90
2008,10,19,06,41,1.90
2008,10,19,06,42,1.90
2008,10,19,06,43,1.90
2008,10,19,06,44,1.90
2008,10,19,06,45,1.80
2008,10,19,06,46,1.80
2008,10,19,06,47,1.80
2008,10,19,06,48,1.80
2008,10,19,06,49,1.80
2008,10,19,06,50,1.80
2008,10,19,06,51,1.90
2008,10,19,06,52,1.90
2008,10,19,06,53,1.90
2008,10,19,06,54,1.80
2008,10,19,06,55,1.80
2008,10,19,06,56,1.80
2008,10,19,06,57,1.80
2008,10,19,06,58,1.90
2008,10,19,06,59,1.90
2008,10,19,07,00,1.90
2008,10,19,07,01,1.90
2008,10,19,07,02,2.00
2008,10,19,07,03,2.00
2008,10,19,07,04,2.00
2008,10,19,07,05,2.10
2008,10,19,07,06,2.10
2008,10,19,07,07,2.10
2008,10,19,07,08,2.10
2008,10,19,07,09,2.10
2008,10,19,07,10,2.10
2008,10,19,07,11,2.10
2008,10,19,07,12,2.20
2008,10,19,07,13,2.20
2008,10,19,07,14,2.20
2008,10,19,07,15,2.20
2008,10,19,07,16,2.20
2008,10,19,07,17,2.20
2008,10,19,07,18,2.30
2008,10,19,07,19,2.30
2008,10,19,07,20,2.30
2008,10,19,07,21,2.30
2008,10,19,07,22,2.20
2008,10,19,07,23,2.20
2008,10,19,07,24,2.30
2008,10,19,07,25,2.30
2008,10,19,07,26,2.30
2008,10,19,07,27,2.30
2008,10,19,07,28,2.30
2008,10,19,07,29,2.30
2008,10,19,07,30,2.30
2008,10,19,07,31,2.30
2008,10,19,07,32,2.30
2008,10,19,07,33,2.40
2008,10,19,07,34,2.40
2008,10,19,07,35,2.40
2008,10,19,07,36,2.40
2008,10,19,07,37,2.40
2008,10,19,07,38,2.40
2008,10,19,07,39,2.40
2008,10,19,07,40,2.40
2008,10,19,07,41,2.40
2008,10,19,07,42,2.40
2008,10,19,07,43,2.40
2008,10,19,07,44,2.40
2008,10,19,07,45,2.40
2008,10,19,07,46,2.40
2008,10,19,07,47,2.40
2008,10,19,07,48,2.40
2008,10,19,07,49,2.40
2008,10,19,07,50,2.40
2008,10,19,07,51,2.40
2008,10,19,07,52,2.40
2008,10,19,07,53,2.40
2008,10,19,07,54,2.40
2008,10,19,07,55,2.40
2008,10,19,07,56,2.40
2008,10,19,07,57,2.40
2008,10,19,07,58,2.40
2008,10,19,07,59,2.40
2008,10,19,08,00,2.40
2008,10,19,08,01,2.40
2008,10,19,08,02,2.40
2008,10,19,08,03,2.40
2008,10,19,08,04,2.40
2008,10,19,08,05,2.50
2008,10,19,08,06,2.50
2008,10,19,08,07,2.50
2008,10,19,08,08,2.50
2008,10,19,08,09,2.50
2008,10,19,08,10,2.50
2008,10,19,08,11,2.50
2008,10,19,08,12,2.50
2008,10,19,08,13,2.50
2008,10,19,08,14,2.50
2008,10,19,08,15,2.50
2008,10,19,08,16,2.60
2008,10,19,08,17,2.60
2008,10,19,08,18,2.60
2008,10,19,08,19,2.60
2008,10,19,08,20,2.60
2008,10,19,08,21,2.60
2008,10,19,08,22,2.60
2008,10,19,08,23,2.60
2008,10,19,08,24,2.60
2008,10,19,08,25,2.60
2008,10,19,08,26,2.60
2008,10,19,08,27,2.60
2008,10,19,08,28,2.60
2008,10,19,08,29,2.60
2008,10,19,08,30,2.60
2008,10,19,08,31,2.60
2008,10,19,08,32,2.60
2008,10,19,08,33,2.60
2008,10,19,08,34,2.60
2008,10,19,08,35,2.60
2008,10,19,08,36,2.60
2008,10,19,08,37,2.60
2008,10,19,08,38,2.60
2008,10,19,08,39,2.70
2008,10,19,08,40,2.70
2008,10,19,08,41,2.70
2008,10,19,08,42,2.70
2008,10,19,08,43,2.70
2008,10,19,08,44,2.70
2008,10,19,08,45,2.80
2008,10,19,08,46,2.80
2008,10,19,08,47,2.80
2008,10,19,08,48,2.80
2008,10,19,08,49,2.80
2008,10,19,08,50,2.80
2008,10,19,08,51,2.90
2008,10,19,08,52,2.90
2008,10,19,08,53,2.90
2008,10,19,08,54,2.90
2008,10,19,08,55,2.90
2008,10,19,08,56,2.90
2008,10,19,08,57,3.00
2008,10,19,08,58,3.00
2008,10,19,08,59,3.00
2008,10,19,09,00,3.00
2008,10,19,09,01,3.10
2008,10,19,09,02,3.10
2008,10,19,09,03,3.10
2008,10,19,09,04,3.10
2008,10,19,09,05,3.20
2008,10,19,09,06,3.20
2008,10,19,09,07,3.20
2008,10,19,09,08,3.20
2008,10,19,09,09,3.30
2008,10,19,09,10,3.30
2008,10,19,09,11,3.30
2008,10,19,09,12,3.30
2008,10,19,09,13,3.40
2008,10,19,09,14,3.40
2008,10,19,09,15,3.40
2008,10,19,09,16,3.50
2008,10,19,09,17,3.50
2008,10,19,09,18,3.50
2008,10,19,09,19,3.60
2008,10,19,09,20,3.60
2008,10,19,09,21,3.60
2008,10,19,09,22,3.60
2008,10,19,09,23,3.60
2008,10,19,09,24,3.60
2008,10,19,09,25,3.60
2008,10,19,09,26,3.60
2008,10,19,09,27,3.60
2008,10,19,09,28,3.60
2008,10,19,09,29,3.60
2008,10,19,09,30,3.70
2008,10,19,09,31,3.70
2008,10,19,09,32,3.70
2008,10,19,09,33,3.70
2008,10,19,09,34,3.70
2008,10,19,09,35,3.80
2008,10,19,09,36,3.80
2008,10,19,09,37,3.80
2008,10,19,09,38,3.80
2008,10,19,09,39,3.90
2008,10,19,09,40,3.90
2008,10,19,09,41,3.90
2008,10,19,09,42,4.00
2008,10,19,09,43,4.00
2008,10,19,09,44,4.10
2008,10,19,09,45,4.10
2008,10,19,09,46,4.10
2008,10,19,09,47,4.20
2008,10,19,09,48,4.20
2008,10,19,09,49,4.20
2008,10,19,09,50,4.30
2008,10,19,09,51,4.30
2008,10,19,09,52,4.30
2008,10,19,09,53,4.40
2008,10,19,09,54,4.40
2008,10,19,09,55,4.40
2008,10,19,09,56,4.50
2008,10,19,09,57,4.50
2008,10,19,09,58,4.50
2008,10,19,09,59,4.60
2008,10,19,10,00,4.60
2008,10,19,10,01,4.70
2008,10,19,10,02,4.70
2008,10,19,10,03,4.80
2008,10,19,10,04,4.80
2008,10,19,10,05,4.90
2008,10,19,10,06,5.00
2008,10,19,10,07,5.00
2008,10,19,10,08,5.10
2008,10,19,10,09,5.10
2008,10,19,10,10,5.10
2008,10,19,10,11,5.20
2008,10,19,10,12,5.20
2008,10,19,10,13,5.30
2008,10,19,10,14,5.30
2008,10,19,10,15,5.40
2008,10,19,10,16,5.40
2008,10,19,10,17,5.40
2008,10,19,10,18,5.50
2008,10,19,10,19,5.60
2008,10,19,10,20,5.60
2008,10,19,10,21,5.70
2008,10,19,10,22,5.70
2008,10,19,10,23,5.70
2008,10,19,10,24,5.80
2008,10,19,10,25,5.80
2008,10,19,10,26,5.90
2008,10,19,10,27,5.90
2008,10,19,10,28,6.00
2008,10,19,10,29,6.10
2008,10,19,10,30,6.20
2008,10,19,10,31,6.30
2008,10,19,10,32,6.40
2008,10,19,10,33,6.50
2008,10,19,10,34,6.60
2008,10,19,10,35,6.70
2008,10,19,10,36,6.80
2008,10,19,10,37,6.90
2008,10,19,10,38,7.00
2008,10,19,10,39,7.00
2008,10,19,10,40,7.10
2008,10,19,10,41,7.20
2008,10,19,10,42,7.30
2008,10,19,10,43,7.40
2008,10,19,10,44,7.60
2008,10,19,10,45,7.70
2008,10,19,10,46,7.80
2008,10,19,10,47,7.90
2008,10,19,10,48,8.00
2008,10,19,10,49,8.10
2008,10,19,10,50,8.10
2008,10,19,10,51,8.20
2008,10,19,10,52,8.20
2008,10,19,10,53,8.30
2008,10,19,10,54,8.40
2008,10,19,10,55,8.40
2008,10,19,10,56,8.40
2008,10,19,10,57,8.50
2008,10,19,10,58,8.50
2008,10,19,10,59,8.50
2008,10,19,11,00,8.50
2008,10,19,11,01,8.50
2008,10,19,11,02,8.50
2008,10,19,11,03,8.50
2008,10,19,11,04,8.50
2008,10,19,11,05,8.60
2008,10,19,11,06,8.60
2008,10,19,11,07,8.60
2008,10,19,11,08,8.60
2008,10,19,11,09,8.70
2008,10,19,11,10,8.70
2008,10,19,11,11,8.70
2008,10,19,11,12,8.70
2008,10,19,11,13,8.80
2008,10,19,11,14,8.80
2008,10,19,11,15,8.90
2008,10,19,11,16,8.90
2008,10,19,11,17,8.90
2008,10,19,11,18,9.00
2008,10,19,11,19,9.00
2008,10,19,11,20,9.10
2008,10,19,11,21,9.20
2008,10,19,11,22,9.20
2008,10,19,11,23,9.20
2008,10,19,11,24,9.20
2008,10,19,11,25,9.20
2008,10,19,11,26,9.20
2008,10,19,11,27,9.20
2008,10,19,11,28,9.30
2008,10,19,11,29,9.30
2008,10,19,11,30,9.30
2008,10,19,11,31,9.40
2008,10,19,11,32,9.40
2008,10,19,11,33,9.40
2008,10,19,11,34,9.40
2008,10,19,11,35,9.40
2008,10,19,11,36,9.40
2008,10,19,11,37,9.40
2008,10,19,11,38,9.40
2008,10,19,11,39,9.40
2008,10,19,11,40,9.40
2008,10,19,11,41,9.40
2008,10,19,11,42,9.40
2008,10,19,11,43,9.40
2008,10,19,11,44,9.40
2008,10,19,11,45,9.40
2008,10,19,11,46,9.40
2008,10,19,11,47,9.40
2008,10,19,11,48,9.40
2008,10,19,11,49,9.40
2008,10,19,11,50,9.40
2008,10,19,11,51,9.50
2008,10,19,11,52,9.50
2008,10,19,11,53,9.50
2008,10,19,11,54,9.60
2008,10,19,11,55,9.60
2008,10,19,11,56,9.60
2008,10,19,11,57,9.70
2008,10,19,11,58,9.70
2008,10,19,11,59,9.80
2008,10,19,12,00,9.80
2008,10,19,12,01,9.80
2008,10,19,12,02,9.80
2008,10,19,12,03,9.90
2008,10,19,12,04,10.00
2008,10,19,12,05,10.00
2008,10,19,12,06,10.10
2008,10,19,12,07,10.10
2008,10,19,12,08,10.20
2008,10,19,12,09,10.20
2008,10,19,12,10,10.20
2008,10,19,12,11,10.20
2008,10,19,12,12,10.20
2008,10,19,12,13,10.20
2008,10,19,12,14,10.20
2008,10,19,12,15,10.30
2008,10,19,12,16,10.30
2008,10,19,12,17,10.30
2008,10,19,12,18,10.30
2008,10,19,12,19,10.40
2008,10,19,12,20,10.40
2008,10,19,12,21,10.40
2008,10,19,12,22,10.50
2008,10,19,12,23,10.50
2008,10,19,12,24,10.50
2008,10,19,12,25,10.50
2008,10,19,12,26,10.60
2008,10,19,12,27,10.60
2008,10,19,12,28,10.60
2008,10,19,12,29,10.70
2008,10,19,12,30,10.70
2008,10,19,12,31,10.70
2008,10,19,12,32,10.70
2008,10,19,12,33,10.70
2008,10,19,12,34,10.80
2008,10,19,12,35,10.80
2008,10,19,12,36,10.70
2008,10,19,12,37,10.70
2008,10,19,12,38,10.70
2008,10,19,12,39,10.70
2008,10,19,12,40,10.70
2008,10,19,12,41,10.70
2008,10,19,12,42,10.70
2008,10,19,12,43,10.70
2008,10,19,12,44,10.70
2008,10,19,12,45,10.80
2008,10,19,12,46,10.80
2008,10,19,12,47,10.80
2008,10,19,12,48,10.90
2008,10,19,12,49,10.90
2008,10,19,12,50,10.90
2008,10,19,12,51,10.90
2008,10,19,12,52,10.90
2008,10,19,12,53,11.00
2008,10,19,12,54,11.00
2008,10,19,12,55,11.10
2008,10,19,12,56,11.10
2008,10,19,12,57,11.10
2008,10,19,12,58,11.10
2008,10,19,12,59,11.10
2008,10,19,13,00,11.10
2008,10,19,13,01,11.20
2008,10,19,13,02,11.20
2008,10,19,13,03,11.30
2008,10,19,13,04,11.40
2008,10,19,13,05,11.40
2008,10,19,13,06,11.50
2008,10,19,13,07,11.50
2008,10,19,13,08,11.50
2008,10,19,13,09,11.40
2008,10,19,13,10,11.40
2008,10,19,13,11,11.30
2008,10,19,13,12,11.20
2008,10,19,13,13,11.20
2008,10,19,13,14,11.20
2008,10,19,13,15,11.00
2008,10,19,13,16,10.80
2008,10,19,13,17,10.70
2008,10,19,13,18,10.60
2008,10,19,13,19,10.50
2008,10,19,13,20,10.40
2008,10,19,13,21,10.30
2008,10,19,13,22,10.30
2008,10,19,13,23,10.20
2008,10,19,13,24,10.10
2008,10,19,13,25,10.00
2008,10,19,13,26,10.00
2008,10,19,13,27,9.90
2008,10,19,13,28,9.80
2008,10,19,13,29,9.80
2008,10,19,13,30,9.80
2008,10,19,13,31,9.80
2008,10,19,13,32,9.80
2008,10,19,13,33,9.80
2008,10,19,13,34,9.80
2008,10,19,13,35,9.80
2008,10,19,13,36,9.80
2008,10,19,13,37,9.90
2008,10,19,13,38,9.90
2008,10,19,13,39,9.90
2008,10,19,13,40,10.00
2008,10,19,13,41,10.10
2008,10,19,13,42,10.20
2008,10,19,13,43,10.30
2008,10,19,13,44,10.40
2008,10,19,13,45,10.60
2008,10,19,13,46,10.70
2008,10,19,13,47,10.80
2008,10,19,13,48,10.90
2008,10,19,13,49,11.00
2008,10,19,13,50,11.10
2008,10,19,13,51,11.20
2008,10,19,13,52,11.20
2008,10,19,13,53,11.20
2008,10,19,13,54,11.20
2008,10,19,13,55,11.30
2008,10,19,13,56,11.30
2008,10,19,13,57,11.30
2008,10,19,13,58,11.30
2008,10,19,13,59,11.30
2008,10,19,14,00,11.30
2008,10,19,14,01,11.40
2008,10,19,14,02,11.40
2008,10,19,14,03,11.40
2008,10,19,14,04,11.40
2008,10,19,14,05,11.30
2008,10,19,14,06,11.30
2008,10,19,14,07,11.40
2008,10,19,14,08,11.40
2008,10,19,14,09,11.50
2008,10,19,14,10,11.50
2008,10,19,14,11,11.60
2008,10,19,14,12,11.60
2008,10,19,14,13,11.60
2008,10,19,14,14,11.60
2008,10,19,14,15,11.60
2008,10,19,14,16,11.50
2008,10,19,14,17,11.50
2008,10,19,14,18,11.60
2008,10,19,14,19,11.60
2008,10,19,14,20,11.70
2008,10,19,14,21,11.70
2008,10,19,14,22,11.80
2008,10,19,14,23,11.70
2008,10,19,14,24,11.60
2008,10,19,14,25,11.60
2008,10,19,14,26,11.60
2008,10,19,14,27,11.50
2008,10,19,14,28,11.40
2008,10,19,14,29,11.30
2008,10,19,14,30,11.40
2008,10,19,14,31,11.40
2008,10,19,14,32,11.30
2008,10,19,14,33,11.20
2008,10,19,14,34,11.20
2008,10,19,14,35,11.10
2008,10,19,14,36,11.10
2008,10,19,14,37,11.10
2008,10,19,14,38,11.10
2008,10,19,14,39,11.00
2008,10,19,14,40,11.00
2008,10,19,14,41,10.90
2008,10,19,14,42,10.90
2008,10,19,14,43,10.90
2008,10,19,14,44,10.80
2008,10,19,14,45,10.80
2008,10,19,14,46,10.80
2008,10,19,14,47,10.80
2008,10,19,14,48,10.80
2008,10,19,14,49,10.80
2008,10,19,14,50,10.70
2008,10,19,14,51,10.70
2008,10,19,14,52,10.60
2008,10,19,14,53,10.60
2008,10,19,14,54,10.50
2008,10,19,14,55,10.50
2008,10,19,14,56,10.40
2008,10,19,14,57,10.40
2008,10,19,14,58,10.40
2008,10,19,14,59,10.40
2008,10,19,15,00,10.40
2008,10,19,15,01,10.40
2008,10,19,15,02,10.40
2008,10,19,15,03,10.50
2008,10,19,15,04,10.50
2008,10,19,15,05,10.60
2008,10,19,15,06,10.60
2008,10,19,15,07,10.70
2008,10,19,15,08,10.70
2008,10,19,15,09,10.80
2008,10,19,15,10,10.80
2008,10,19,15,11,10.90
2008,10,19,15,12,10.90
2008,10,19,15,13,10.90
2008,10,19,15,14,10.90
2008,10,19,15,15,10.90
2008,10,19,15,16,10.90
2008,10,19,15,17,10.90
2008,10,19,15,18,10.90
2008,10,19,15,19,10.80
2008,10,19,15,20,10.80
2008,10,19,15,21,10.80
2008,10,19,15,22,10.90
2008,10,19,15,23,10.90
2008,10,19,15,24,10.90
2008,10,19,15,25,10.90
2008,10,19,15,26,11.00
2008,10,19,15,27,11.00
2008,10,19,15,28,11.10
2008,10,19,15,29,11.10
2008,10,19,15,30,11.10
2008,10,19,15,31,11.20
2008,10,19,15,32,11.20
2008,10,19,15,33,11.20
2008,10,19,15,34,11.30
2008,10,19,15,35,11.30
2008,10,19,15,36,11.30
2008,10,19,15,37,11.30
2008,10,19,15,38,11.20
2008,10,19,15,39,11.20
2008,10,19,15,40,11.20
2008,10,19,15,41,11.30
2008,10,19,15,42,11.30
2008,10,19,15,43,11.30
2008,10,19,15,44,11.30
2008,10,19,15,45,11.30
2008,10,19,15,46,11.20
2008,10,19,15,47,11.20
2008,10,19,15,48,11.20
2008,10,19,15,49,11.20
2008,10,19,15,50,11.20
2008,10,19,15,51,11.20
2008,10,19,15,52,11.20
2008,10,19,15,53,11.20
2008,10,19,15,54,11.10
2008,10,19,15,55,11.00
2008,10,19,15,56,10.90
2008,10,19,15,57,10.80
2008,10,19,15,58,10.80
2008,10,19,15,59,10.70
2008,10,19,16,00,10.70
2008,10,19,16,01,10.60
2008,10,19,16,02,10.60
2008,10,19,16,03,10.60
2008,10,19,16,04,10.50
2008,10,19,16,05,10.50
2008,10,19,16,06,10.50
2008,10,19,16,07,10.40
2008,10,19,16,08,10.40
2008,10,19,16,09,10.40
2008,10,19,16,10,10.40
2008,10,19,16,11,10.40
2008,10,19,16,12,10.40
2008,10,19,16,13,10.30
2008,10,19,16,14,10.30
2008,10,19,16,15,10.40
2008,10,19,16,16,10.40
2008,10,19,16,17,10.40
2008,10,19,16,18,10.40
2008,10,19,16,19,10.30
2008,10,19,16,20,10.30
2008,10,19,16,21,10.30
2008,10,19,16,22,10.20
2008,10,19,16,23,10.20
2008,10,19,16,24,10.20
2008,10,19,16,25,10.20
2008,10,19,16,26,10.20
2008,10,19,16,27,10.20
2008,10,19,16,28,10.10
2008,10,19,16,29,10.10
2008,10,19,16,30,10.10
2008,10,19,16,31,10.10
2008,10,19,16,32,10.00
2008,10,19,16,33,10.00
2008,10,19,16,34,10.00
2008,10,19,16,35,10.00
2008,10,19,16,36,9.90
2008,10,19,16,37,9.90
2008,10,19,16,38,9.90
2008,10,19,16,39,9.90
2008,10,19,16,40,9.90
2008,10,19,16,41,9.90
2008,10,19,16,42,9.90
2008,10,19,16,43,9.90
2008,10,19,16,44,9.90
2008,10,19,16,45,9.90
2008,10,19,16,46,9.90
2008,10,19,16,47,9.90
2008,10,19,16,48,9.80
2008,10,19,16,49,9.80
2008,10,19,16,50,9.80
2008,10,19,16,51,9.80
2008,10,19,16,52,9.80
2008,10,19,16,53,9.80
2008,10,19,16,54,9.70
2008,10,19,16,55,9.70
2008,10,19,16,56,9.70
2008,10,19,16,57,9.70
2008,10,19,16,58,9.60
2008,10,19,16,59,9.60
2008,10,19,17,00,9.60
2008,10,19,17,01,9.60
2008,10,19,17,02,9.60
2008,10,19,17,03,9.60
2008,10,19,17,04,9.60
2008,10,19,17,05,9.60
2008,10,19,17,06,9.60
2008,10,19,17,07,9.60
2008,10,19,17,08,9.60
2008,10,19,17,09,9.60
2008,10,19,17,10,9.60
2008,10,19,17,11,9.60
2008,10,19,17,12,9.50
2008,10,19,17,13,9.50
2008,10,19,17,14,9.50
2008,10,19,17,15,9.50
2008,10,19,17,16,9.40
2008,10,19,17,17,9.40
2008,10,19,17,18,9.40
2008,10,19,17,19,9.40
2008,10,19,17,20,9.40
2008,10,19,17,21,9.40
2008,10,19,17,22,9.40
2008,10,19,17,23,9.30
2008,10,19,17,24,9.30
2008,10,19,17,25,9.30
2008,10,19,17,26,9.30
2008,10,19,17,27,9.30
2008,10,19,17,28,9.30
2008,10,19,17,29,9.20
2008,10,19,17,30,9.20
2008,10,19,17,31,9.20
2008,10,19,17,32,9.20
2008,10,19,17,33,9.20
2008,10,19,17,34,9.20
2008,10,19,17,35,9.20
2008,10,19,17,36,9.20
2008,10,19,17,37,9.20
2008,10,19,17,38,9.10
2008,10,19,17,39,9.10
2008,10,19,17,40,9.10
2008,10,19,17,41,9.10
2008,10,19,17,42,9.10
2008,10,19,17,43,9.10
2008,10,19,17,44,9.10
2008,10,19,17,45,9.10
2008,10,19,17,46,9.10
2008,10,19,17,47,9.10
2008,10,19,17,48,9.10
2008,10,19,17,49,9.00
2008,10,19,17,50,9.00
2008,10,19,17,51,9.00
2008,10,19,17,52,9.00
2008,10,19,17,53,9.00
2008,10,19,17,54,9.00
2008,10,19,17,55,9.00
2008,10,19,17,56,8.90
2008,10,19,17,57,8.90
2008,10,19,17,58,8.90
2008,10,19,17,59,8.90
2008,10,19,18,00,8.90
2008,10,19,18,01,8.90
2008,10,19,18,02,8.90
2008,10,19,18,03,8.90
2008,10,19,18,04,8.90
2008,10,19,18,05,8.90
2008,10,19,18,06,8.90
2008,10,19,18,07,8.80
2008,10,19,18,08,8.80
2008,10,19,18,09,8.80
2008,10,19,18,10,8.80